^^
Daily Summary for August 25, 2021 Units:  Both    English   Metric
Daily Weekly Monthly Yearly Custom
  High: Low: Average:
Temperature: 90.0 °F /  32.2 °C 57.0 °F /  13.9 °C 72.5 °F /  22.5 °C
Dew Point: 50.0 °F /  10 °C 40.0 °F /  4.4 °C 44.7 °F /  7.1 °C
Humidity: 66% 21% 40%
Wind Speed: 20mph /  32.2km/h - 3.7mph /  6km/h
Wind Gust: 20mph /  32.2km/h - -
Wind- - SW
Pressure: 30.1 in /  1019.2 hPa 30.0 in /  1015.8 hPa -
Precipitation: 0.000 in /  0 mm    
Historical Graphs
 
 
Tabular Data for August 25, 2021
Time Temperature Dew Point Pressure Wind Wind Speed Wind Gust Humidity Rainfall Rate (Hourly) solar
00:04 65.0 °F /  18.3 °C 43.0 °F /  6.1 °C 30.0in /  1015.8hPa Calm     46% 0.000in /  0mm 0.00 W/m2
00:09 64.0 °F /  17.8 °C 43.0 °F /  6.1 °C 30.0in /  1015.8hPa Calm     46% 0.000in /  0mm 0.00 W/m2
00:14 64.0 °F /  17.8 °C 44.0 °F /  6.7 °C 30.0in /  1015.8hPa Calm     47% 0.000in /  0mm 0.00 W/m2
00:19 64.0 °F /  17.8 °C 44.0 °F /  6.7 °C 30.0in /  1015.8hPa Calm     47% 0.000in /  0mm 0.00 W/m2
00:24 64.0 °F /  17.8 °C 43.0 °F /  6.1 °C 30.0in /  1015.8hPa Calm     47% 0.000in /  0mm 0.00 W/m2
00:29 64.0 °F /  17.8 °C 43.0 °F /  6.1 °C 30.0in /  1015.8hPa Calm     47% 0.000in /  0mm 0.00 W/m2
00:34 64.0 °F /  17.8 °C 43.0 °F /  6.1 °C 30.0in /  1015.8hPa Calm     47% 0.000in /  0mm 0.00 W/m2
00:39 64.0 °F /  17.8 °C 43.0 °F /  6.1 °C 30.0in /  1015.8hPa Calm     47% 0.000in /  0mm 0.00 W/m2
00:44 64.0 °F /  17.8 °C 44.0 °F /  6.7 °C 30.0in /  1015.8hPa Calm     48% 0.000in /  0mm 0.00 W/m2
00:49 64.0 °F /  17.8 °C 44.0 °F /  6.7 °C 30.0in /  1015.8hPa Calm     48% 0.000in /  0mm 0.00 W/m2
00:54 64.0 °F /  17.8 °C 44.0 °F /  6.7 °C 30.0in /  1015.8hPa Calm     48% 0.000in /  0mm 0.00 W/m2
00:59 64.0 °F /  17.8 °C 43.0 °F /  6.1 °C 30.0in /  1015.8hPa Calm     48% 0.000in /  0mm 0.00 W/m2
01:04 63.0 °F /  17.2 °C 43.0 °F /  6.1 °C 30.0in /  1015.8hPa Calm     48% 0.000in /  0mm 0.00 W/m2
01:09 63.0 °F /  17.2 °C 43.0 °F /  6.1 °C 30.0in /  1015.8hPa Calm     48% 0.000in /  0mm 0.00 W/m2
01:14 63.0 °F /  17.2 °C 44.0 °F /  6.7 °C 30.0in /  1015.8hPa Calm     49% 0.000in /  0mm 0.00 W/m2
01:19 63.0 °F /  17.2 °C 43.0 °F /  6.1 °C 30.0in /  1015.8hPa Calm     49% 0.000in /  0mm 0.00 W/m2
01:24 63.0 °F /  17.2 °C 43.0 °F /  6.1 °C 30.0in /  1015.8hPa Calm     49% 0.000in /  0mm 0.00 W/m2
01:29 63.0 °F /  17.2 °C 43.0 °F /  6.1 °C 30.0in /  1015.8hPa Calm     49% 0.000in /  0mm 0.00 W/m2
01:34 62.0 °F /  16.7 °C 43.0 °F /  6.1 °C 30.0in /  1015.8hPa Calm     50% 0.000in /  0mm 0.00 W/m2
01:39 62.0 °F /  16.7 °C 43.0 °F /  6.1 °C 30.0in /  1015.8hPa Calm     50% 0.000in /  0mm 0.00 W/m2
01:44 62.0 °F /  16.7 °C 43.0 °F /  6.1 °C 30.0in /  1015.8hPa Calm     50% 0.000in /  0mm 0.00 W/m2
01:49 62.0 °F /  16.7 °C 44.0 °F /  6.7 °C 30.0in /  1015.8hPa Calm     51% 0.000in /  0mm 0.00 W/m2
01:54 62.0 °F /  16.7 °C 44.0 °F /  6.7 °C 30.0in /  1015.8hPa Calm     51% 0.000in /  0mm 0.00 W/m2
01:59 62.0 °F /  16.7 °C 43.0 °F /  6.1 °C 30.0in /  1015.8hPa Calm     50% 0.000in /  0mm 0.00 W/m2
02:04 62.0 °F /  16.7 °C 43.0 °F /  6.1 °C 30.0in /  1015.8hPa Calm     50% 0.000in /  0mm 0.00 W/m2
02:09 62.0 °F /  16.7 °C 43.0 °F /  6.1 °C 30.0in /  1015.8hPa Calm     50% 0.000in /  0mm 0.00 W/m2
02:14 62.0 °F /  16.7 °C 43.0 °F /  6.1 °C 30.0in /  1015.8hPa Calm     50% 0.000in /  0mm 0.00 W/m2
02:19 62.0 °F /  16.7 °C 43.0 °F /  6.1 °C 30.0in /  1015.8hPa Calm     51% 0.000in /  0mm 0.00 W/m2
02:24 62.0 °F /  16.7 °C 43.0 °F /  6.1 °C 30.0in /  1015.8hPa Calm     51% 0.000in /  0mm 0.00 W/m2
02:29 61.0 °F /  16.1 °C 43.0 °F /  6.1 °C 30.0in /  1015.8hPa Calm     51% 0.000in /  0mm 0.00 W/m2
02:34 61.0 °F /  16.1 °C 43.0 °F /  6.1 °C 30.0in /  1015.8hPa Calm     51% 0.000in /  0mm 0.00 W/m2
02:39 61.0 °F /  16.1 °C 43.0 °F /  6.1 °C 30.0in /  1015.8hPa Calm     51% 0.000in /  0mm 0.00 W/m2
02:44 61.0 °F /  16.1 °C 43.0 °F /  6.1 °C 30.0in /  1015.8hPa Calm     52% 0.000in /  0mm 0.00 W/m2
02:49 61.0 °F /  16.1 °C 43.0 °F /  6.1 °C 30.0in /  1015.8hPa Calm     51% 0.000in /  0mm 0.00 W/m2
02:54 61.0 °F /  16.1 °C 43.0 °F /  6.1 °C 30.0in /  1015.8hPa Calm     51% 0.000in /  0mm 0.00 W/m2
02:59 61.0 °F /  16.1 °C 43.0 °F /  6.1 °C 30.0in /  1015.8hPa Calm     52% 0.000in /  0mm 0.00 W/m2
03:04 61.0 °F /  16.1 °C 43.0 °F /  6.1 °C 30.0in /  1015.8hPa Calm     52% 0.000in /  0mm 0.00 W/m2
03:09 61.0 °F /  16.1 °C 43.0 °F /  6.1 °C 30.0in /  1015.8hPa Calm     52% 0.000in /  0mm 0.00 W/m2
03:14 61.0 °F /  16.1 °C 43.0 °F /  6.1 °C 30.0in /  1015.8hPa Calm     52% 0.000in /  0mm 0.00 W/m2
03:19 61.0 °F /  16.1 °C 44.0 °F /  6.7 °C 30.0in /  1015.8hPa Calm     54% 0.000in /  0mm 0.00 W/m2
03:24 61.0 °F /  16.1 °C 43.0 °F /  6.1 °C 30.0in /  1015.8hPa Calm     53% 0.000in /  0mm 0.00 W/m2
03:29 61.0 °F /  16.1 °C 44.0 °F /  6.7 °C 30.0in /  1015.8hPa Calm     54% 0.000in /  0mm 0.00 W/m2
03:34 60.0 °F /  15.6 °C 44.0 °F /  6.7 °C 30.0in /  1015.8hPa Calm     55% 0.000in /  0mm 0.00 W/m2
03:39 60.0 °F /  15.6 °C 44.0 °F /  6.7 °C 30.0in /  1015.8hPa Calm     54% 0.000in /  0mm 0.00 W/m2
03:44 60.0 °F /  15.6 °C 44.0 °F /  6.7 °C 30.0in /  1015.8hPa Calm     55% 0.000in /  0mm 0.00 W/m2
03:49 60.0 °F /  15.6 °C 44.0 °F /  6.7 °C 30.0in /  1015.8hPa Calm     54% 0.000in /  0mm 0.00 W/m2
03:54 60.0 °F /  15.6 °C 43.0 °F /  6.1 °C 30.0in /  1015.8hPa Calm     54% 0.000in /  0mm 0.00 W/m2
03:59 60.0 °F /  15.6 °C 43.0 °F /  6.1 °C 30.0in /  1015.8hPa Calm     54% 0.000in /  0mm 0.00 W/m2
04:04 60.0 °F /  15.6 °C 43.0 °F /  6.1 °C 30.0in /  1015.8hPa Calm     54% 0.000in /  0mm 0.00 W/m2
04:09 59.0 °F /  15 °C 43.0 °F /  6.1 °C 30.0in /  1015.8hPa Calm     54% 0.000in /  0mm 0.00 W/m2
04:14 59.0 °F /  15 °C 43.0 °F /  6.1 °C 30.0in /  1015.8hPa Calm     55% 0.000in /  0mm 0.00 W/m2
04:18 59.0 °F /  15 °C 43.0 °F /  6.1 °C 30.0in /  1015.8hPa Calm     55% 0.000in /  0mm 0.00 W/m2
04:24 59.0 °F /  15 °C 43.0 °F /  6.1 °C 30.0in /  1015.8hPa Calm     55% 0.000in /  0mm 0.00 W/m2
04:29 59.0 °F /  15 °C 42.0 °F /  5.6 °C 30.0in /  1015.8hPa Calm     55% 0.000in /  0mm 0.00 W/m2
04:34 58.0 °F /  14.4 °C 42.0 °F /  5.6 °C 30.0in /  1015.8hPa Calm     54% 0.000in /  0mm 0.00 W/m2
04:39 58.0 °F /  14.4 °C 41.0 °F /  5 °C 30.0in /  1015.8hPa Calm     52% 0.000in /  0mm 0.00 W/m2
04:44 58.0 °F /  14.4 °C 40.0 °F /  4.4 °C 30.0in /  1015.8hPa Calm     51% 0.000in /  0mm 0.00 W/m2
04:49 58.0 °F /  14.4 °C 40.0 °F /  4.4 °C 30.0in /  1015.8hPa Calm     51% 0.000in /  0mm 0.00 W/m2
04:54 58.0 °F /  14.4 °C 40.0 °F /  4.4 °C 30.0in /  1015.8hPa Calm     52% 0.000in /  0mm 0.00 W/m2
04:59 58.0 °F /  14.4 °C 40.0 °F /  4.4 °C 30.0in /  1015.8hPa Calm     52% 0.000in /  0mm 0.00 W/m2
05:04 58.0 °F /  14.4 °C 41.0 °F /  5 °C 30.0in /  1015.8hPa Calm     53% 0.000in /  0mm 0.00 W/m2
05:09 58.0 °F /  14.4 °C 41.0 °F /  5 °C 30.0in /  1015.8hPa Calm     53% 0.000in /  0mm 0.00 W/m2
05:14 58.0 °F /  14.4 °C 41.0 °F /  5 °C 30.0in /  1015.8hPa Calm     54% 0.000in /  0mm 0.00 W/m2
05:19 58.0 °F /  14.4 °C 42.0 °F /  5.6 °C 30.0in /  1015.8hPa Calm     55% 0.000in /  0mm 0.00 W/m2
05:24 58.0 °F /  14.4 °C 42.0 °F /  5.6 °C 30.0in /  1015.8hPa Calm     56% 0.000in /  0mm 0.00 W/m2
05:29 58.0 °F /  14.4 °C 42.0 °F /  5.6 °C 30.0in /  1015.8hPa Calm     57% 0.000in /  0mm 0.00 W/m2
05:34 57.0 °F /  13.9 °C 43.0 °F /  6.1 °C 30.0in /  1015.8hPa Calm     58% 0.000in /  0mm 0.00 W/m2
05:39 57.0 °F /  13.9 °C 43.0 °F /  6.1 °C 30.0in /  1015.8hPa Calm     58% 0.000in /  0mm 0.00 W/m2
05:44 57.0 °F /  13.9 °C 42.0 °F /  5.6 °C 30.0in /  1015.8hPa Calm     56% 0.000in /  0mm 0.00 W/m2
05:49 57.0 °F /  13.9 °C 42.0 °F /  5.6 °C 30.0in /  1015.8hPa Calm     56% 0.000in /  0mm 0.00 W/m2
05:54 57.0 °F /  13.9 °C 42.0 °F /  5.6 °C 30.0in /  1015.8hPa Calm     56% 0.000in /  0mm 0.00 W/m2
05:59 57.0 °F /  13.9 °C 42.0 °F /  5.6 °C 30.0in /  1015.8hPa Calm     56% 0.000in /  0mm 0.00 W/m2
06:04 57.0 °F /  13.9 °C 42.0 °F /  5.6 °C 30.0in /  1015.8hPa Calm     57% 0.000in /  0mm 0.00 W/m2
06:09 57.0 °F /  13.9 °C 42.0 °F /  5.6 °C 30.0in /  1015.8hPa Calm     57% 0.000in /  0mm 0.00 W/m2
06:14 57.0 °F /  13.9 °C 42.0 °F /  5.6 °C 30.0in /  1015.8hPa Calm     58% 0.000in /  0mm 0.00 W/m2
06:19 57.0 °F /  13.9 °C 43.0 °F /  6.1 °C 30.0in /  1015.8hPa Calm     60% 0.000in /  0mm 0.00 W/m2
06:24 57.0 °F /  13.9 °C 44.0 °F /  6.7 °C 30.0in /  1015.8hPa Calm     61% 0.000in /  0mm 0.00 W/m2
06:29 57.0 °F /  13.9 °C 44.0 °F /  6.7 °C 30.0in /  1015.8hPa Calm     61% 0.000in /  0mm 0.00 W/m2
06:34 57.0 °F /  13.9 °C 44.0 °F /  6.7 °C 30.0in /  1015.8hPa Calm     61% 0.000in /  0mm 0.00 W/m2
06:39 57.0 °F /  13.9 °C 44.0 °F /  6.7 °C 30.0in /  1015.8hPa Calm     62% 0.000in /  0mm 7.00 W/m2
06:44 57.0 °F /  13.9 °C 44.0 °F /  6.7 °C 30.0in /  1015.8hPa Calm     62% 0.000in /  0mm 9.00 W/m2
06:49 57.0 °F /  13.9 °C 44.0 °F /  6.7 °C 30.0in /  1015.8hPa Calm     62% 0.000in /  0mm 12.00 W/m2
06:54 57.0 °F /  13.9 °C 44.0 °F /  6.7 °C 30.0in /  1015.8hPa Calm     62% 0.000in /  0mm 16.00 W/m2
06:59 57.0 °F /  13.9 °C 44.0 °F /  6.7 °C 30.0in /  1015.8hPa Calm     62% 0.000in /  0mm 19.00 W/m2
07:04 57.0 °F /  13.9 °C 45.0 °F /  7.2 °C 30.0in /  1015.8hPa Calm     63% 0.000in /  0mm 23.00 W/m2
07:09 57.0 °F /  13.9 °C 45.0 °F /  7.2 °C 30.0in /  1015.8hPa Calm     63% 0.000in /  0mm 26.00 W/m2
07:14 57.0 °F /  13.9 °C 45.0 °F /  7.2 °C 30.0in /  1015.8hPa Calm     63% 0.000in /  0mm 30.00 W/m2
07:19 57.0 °F /  13.9 °C 45.0 °F /  7.2 °C 30.0in /  1015.8hPa Calm     64% 0.000in /  0mm 33.00 W/m2
07:24 57.0 °F /  13.9 °C 45.0 °F /  7.2 °C 30.0in /  1015.8hPa Calm     64% 0.000in /  0mm 39.00 W/m2
07:29 57.0 °F /  13.9 °C 45.0 °F /  7.2 °C 30.0in /  1015.8hPa Calm     64% 0.000in /  0mm 42.00 W/m2
07:34 57.0 °F /  13.9 °C 45.0 °F /  7.2 °C 30.0in /  1015.8hPa Calm     64% 0.000in /  0mm 44.00 W/m2
07:39 58.0 °F /  14.4 °C 45.0 °F /  7.2 °C 30.0in /  1015.8hPa Calm     64% 0.000in /  0mm 49.00 W/m2
07:44 58.0 °F /  14.4 °C 46.0 °F /  7.8 °C 30.0in /  1015.8hPa Calm     66% 0.000in /  0mm 53.00 W/m2
07:49 58.0 °F /  14.4 °C 47.0 °F /  8.3 °C 30.0in /  1015.8hPa Calm     66% 0.000in /  0mm 56.00 W/m2
07:54 58.0 °F /  14.4 °C 46.0 °F /  7.8 °C 30.0in /  1015.8hPa Calm     64% 0.000in /  0mm 62.00 W/m2
07:59 58.0 °F /  14.4 °C 46.0 °F /  7.8 °C 30.0in /  1015.8hPa Calm     64% 0.000in /  0mm 62.00 W/m2
08:04 59.0 °F /  15 °C 47.0 °F /  8.3 °C 30.0in /  1015.8hPa Calm     64% 0.000in /  0mm 70.00 W/m2
08:09 59.0 °F /  15 °C 47.0 °F /  8.3 °C 30.0in /  1015.8hPa Calm     64% 0.000in /  0mm 72.00 W/m2
08:14 59.0 °F /  15 °C 47.0 °F /  8.3 °C 30.0in /  1015.8hPa Calm     64% 0.000in /  0mm 77.00 W/m2
08:19 59.0 °F /  15 °C 47.0 °F /  8.3 °C 30.0in /  1015.8hPa Calm     64% 0.000in /  0mm 84.00 W/m2
08:24 60.0 °F /  15.6 °C 47.0 °F /  8.3 °C 30.0in /  1015.8hPa Calm     64% 0.000in /  0mm 90.00 W/m2
08:29 60.0 °F /  15.6 °C 48.0 °F /  8.9 °C 30.0in /  1015.8hPa Calm     64% 0.000in /  0mm 120.00 W/m2
08:34 60.0 °F /  15.6 °C 48.0 °F /  8.9 °C 30.0in /  1015.8hPa Calm     64% 0.000in /  0mm 179.00 W/m2
08:39 61.0 °F /  16.1 °C 49.0 °F /  9.4 °C 30.0in /  1015.8hPa Calm     64% 0.000in /  0mm 202.00 W/m2
08:44 61.0 °F /  16.1 °C 49.0 °F /  9.4 °C 30.1in /  1019.2hPa Calm     64% 0.000in /  0mm 218.00 W/m2
08:49 62.0 °F /  16.7 °C 50.0 °F /  10 °C 30.1in /  1019.2hPa SSW 2mph /  3.2km/h   64% 0.000in /  0mm 285.00 W/m2
08:54 63.0 °F /  17.2 °C 50.0 °F /  10 °C 30.1in /  1019.2hPa SSW 2mph /  3.2km/h 2mph /  3.2km/h 64% 0.000in /  0mm 290.00 W/m2
08:59 63.0 °F /  17.2 °C 49.0 °F /  9.4 °C 30.1in /  1019.2hPa SSW 2mph /  3.2km/h 2mph /  3.2km/h 60% 0.000in /  0mm 248.00 W/m2
09:04 64.0 °F /  17.8 °C 48.0 °F /  8.9 °C 30.1in /  1019.2hPa SSW 2mph /  3.2km/h 2mph /  3.2km/h 59% 0.000in /  0mm 290.00 W/m2
09:09 64.0 °F /  17.8 °C 48.0 °F /  8.9 °C 30.1in /  1019.2hPa SSW 2mph /  3.2km/h   57% 0.000in /  0mm 322.00 W/m2
09:14 65.0 °F /  18.3 °C 48.0 °F /  8.9 °C 30.1in /  1019.2hPa SSW 2mph /  3.2km/h 2mph /  3.2km/h 55% 0.000in /  0mm 330.00 W/m2
09:19 65.0 °F /  18.3 °C 47.0 °F /  8.3 °C 30.1in /  1019.2hPa SSW 2mph /  3.2km/h 2mph /  3.2km/h 53% 0.000in /  0mm 357.00 W/m2
09:23 66.0 °F /  18.9 °C 47.0 °F /  8.3 °C 30.1in /  1019.2hPa SSW 2mph /  3.2km/h 2mph /  3.2km/h 51% 0.000in /  0mm 359.00 W/m2
09:29 67.0 °F /  19.4 °C 47.0 °F /  8.3 °C 30.1in /  1019.2hPa SSW 4mph /  6.4km/h 2mph /  3.2km/h 50% 0.000in /  0mm 394.00 W/m2
09:34 67.0 °F /  19.4 °C 46.0 °F /  7.8 °C 30.1in /  1019.2hPa SSW 4mph /  6.4km/h 3mph /  4.8km/h 48% 0.000in /  0mm 427.00 W/m2
09:39 68.0 °F /  20 °C 47.0 °F /  8.3 °C 30.1in /  1019.2hPa Calm   2mph /  3.2km/h 48% 0.000in /  0mm 459.00 W/m2
09:44 69.0 °F /  20.6 °C 46.0 °F /  7.8 °C 30.1in /  1019.2hPa SSW 2mph /  3.2km/h   46% 0.000in /  0mm 452.00 W/m2
09:49 69.0 °F /  20.6 °C 46.0 °F /  7.8 °C 30.1in /  1019.2hPa SSW 4mph /  6.4km/h 3mph /  4.8km/h 44% 0.000in /  0mm 461.00 W/m2
09:54 70.0 °F /  21.1 °C 47.0 °F /  8.3 °C 30.1in /  1019.2hPa SW 4mph /  6.4km/h 3mph /  4.8km/h 44% 0.000in /  0mm 517.00 W/m2
09:59 70.0 °F /  21.1 °C 46.0 °F /  7.8 °C 30.1in /  1019.2hPa WSW 2mph /  3.2km/h 3mph /  4.8km/h 42% 0.000in /  0mm 540.00 W/m2
10:04 71.0 °F /  21.7 °C 45.0 °F /  7.2 °C 30.1in /  1019.2hPa WSW 2mph /  3.2km/h 2mph /  3.2km/h 40% 0.000in /  0mm 559.00 W/m2
10:09 72.0 °F /  22.2 °C 45.0 °F /  7.2 °C 30.1in /  1019.2hPa WSW 2mph /  3.2km/h 2mph /  3.2km/h 39% 0.000in /  0mm 582.00 W/m2
10:14 72.0 °F /  22.2 °C 46.0 °F /  7.8 °C 30.1in /  1019.2hPa WNW 4mph /  6.4km/h 2mph /  3.2km/h 40% 0.000in /  0mm 606.00 W/m2
10:19 73.0 °F /  22.8 °C 46.0 °F /  7.8 °C 30.1in /  1019.2hPa WNW 4mph /  6.4km/h 3mph /  4.8km/h 39% 0.000in /  0mm 624.00 W/m2
10:24 74.0 °F /  23.3 °C 47.0 °F /  8.3 °C 30.1in /  1019.2hPa WNW 6mph /  9.7km/h 3mph /  4.8km/h 39% 0.000in /  0mm 642.00 W/m2
10:29 74.0 °F /  23.3 °C 46.0 °F /  7.8 °C 30.1in /  1019.2hPa WNW 4mph /  6.4km/h 6mph /  9.7km/h 37% 0.000in /  0mm 663.00 W/m2
10:34 75.0 °F /  23.9 °C 46.0 °F /  7.8 °C 30.1in /  1019.2hPa WSW 11mph /  17.7km/h 4mph /  6.4km/h 36% 0.000in /  0mm 679.00 W/m2
10:39 76.0 °F /  24.4 °C 46.0 °F /  7.8 °C 30.1in /  1019.2hPa SW 10mph /  16.1km/h 10mph /  16.1km/h 35% 0.000in /  0mm 686.00 W/m2
10:44 76.0 °F /  24.4 °C 46.0 °F /  7.8 °C 30.1in /  1019.2hPa WSW 7mph /  11.3km/h 7mph /  11.3km/h 34% 0.000in /  0mm 698.00 W/m2
10:49 77.0 °F /  25 °C 45.0 °F /  7.2 °C 30.1in /  1019.2hPa WSW 6mph /  9.7km/h 6mph /  9.7km/h 33% 0.000in /  0mm 701.00 W/m2
10:54 77.0 °F /  25 °C 46.0 °F /  7.8 °C 30.1in /  1019.2hPa SW 5mph /  8km/h 6mph /  9.7km/h 33% 0.000in /  0mm 719.00 W/m2
10:59 78.0 °F /  25.6 °C 45.0 °F /  7.2 °C 30.1in /  1019.2hPa SSW 6mph /  9.7km/h 6mph /  9.7km/h 32% 0.000in /  0mm 712.00 W/m2
11:04 78.0 °F /  25.6 °C 45.0 °F /  7.2 °C 30.1in /  1019.2hPa SSW 2mph /  3.2km/h 6mph /  9.7km/h 31% 0.000in /  0mm 721.00 W/m2
11:09 79.0 °F /  26.1 °C 45.0 °F /  7.2 °C 30.1in /  1019.2hPa WSW 7mph /  11.3km/h 4mph /  6.4km/h 31% 0.000in /  0mm 744.00 W/m2
11:14 79.0 °F /  26.1 °C 46.0 °F /  7.8 °C 30.1in /  1019.2hPa SSW 2mph /  3.2km/h 7mph /  11.3km/h 31% 0.000in /  0mm 766.00 W/m2
11:19 79.0 °F /  26.1 °C 46.0 °F /  7.8 °C 30.1in /  1019.2hPa SSW 9mph /  14.5km/h 6mph /  9.7km/h 31% 0.000in /  0mm 775.00 W/m2
11:24 80.0 °F /  26.7 °C 46.0 °F /  7.8 °C 30.1in /  1019.2hPa West 9mph /  14.5km/h 9mph /  14.5km/h 31% 0.000in /  0mm 773.00 W/m2
11:29 80.0 °F /  26.7 °C 47.0 °F /  8.3 °C 30.0in /  1015.8hPa SW 7mph /  11.3km/h 9mph /  14.5km/h 31% 0.000in /  0mm 782.00 W/m2
11:34 81.0 °F /  27.2 °C 46.0 °F /  7.8 °C 30.0in /  1015.8hPa WSW 7mph /  11.3km/h 7mph /  11.3km/h 30% 0.000in /  0mm 803.00 W/m2
11:39 81.0 °F /  27.2 °C 48.0 °F /  8.9 °C 30.0in /  1015.8hPa SSW 9mph /  14.5km/h 7mph /  11.3km/h 31% 0.000in /  0mm 803.00 W/m2
11:44 82.0 °F /  27.8 °C 46.0 °F /  7.8 °C 30.0in /  1015.8hPa WSW 11mph /  17.7km/h 9mph /  14.5km/h 29% 0.000in /  0mm 826.00 W/m2
11:49 82.0 °F /  27.8 °C 46.0 °F /  7.8 °C 30.0in /  1015.8hPa WSW 9mph /  14.5km/h 10mph /  16.1km/h 29% 0.000in /  0mm 844.00 W/m2
11:54 82.0 °F /  27.8 °C 47.0 °F /  8.3 °C 30.0in /  1015.8hPa West 9mph /  14.5km/h 9mph /  14.5km/h 29% 0.000in /  0mm 844.00 W/m2
11:59 83.0 °F /  28.3 °C 46.0 °F /  7.8 °C 30.0in /  1015.8hPa WSW 13mph /  20.9km/h 9mph /  14.5km/h 28% 0.000in /  0mm 854.00 W/m2
12:04 83.0 °F /  28.3 °C 48.0 °F /  8.9 °C 30.0in /  1015.8hPa NNW 7mph /  11.3km/h 13mph /  20.9km/h 29% 0.000in /  0mm 856.00 W/m2
12:09 84.0 °F /  28.9 °C 48.0 °F /  8.9 °C 30.0in /  1015.8hPa SE 18mph /  29km/h 17mph /  27.4km/h 29% 0.000in /  0mm 865.00 W/m2
12:14 84.0 °F /  28.9 °C 46.0 °F /  7.8 °C 30.0in /  1015.8hPa WSW 13mph /  20.9km/h 10mph /  16.1km/h 27% 0.000in /  0mm 867.00 W/m2
12:19 84.0 °F /  28.9 °C 46.0 °F /  7.8 °C 30.0in /  1015.8hPa SW 11mph /  17.7km/h 13mph /  20.9km/h 27% 0.000in /  0mm 868.00 W/m2
12:24 84.0 °F /  28.9 °C 47.0 °F /  8.3 °C 30.0in /  1015.8hPa SSW 10mph /  16.1km/h 10mph /  16.1km/h 27% 0.000in /  0mm 875.00 W/m2
12:29 85.0 °F /  29.4 °C 47.0 °F /  8.3 °C 30.0in /  1015.8hPa SW 7mph /  11.3km/h 7mph /  11.3km/h 27% 0.000in /  0mm 879.00 W/m2
12:34 85.0 °F /  29.4 °C 48.0 °F /  8.9 °C 30.0in /  1015.8hPa SW 9mph /  14.5km/h 6mph /  9.7km/h 28% 0.000in /  0mm 877.00 W/m2
12:39 85.0 °F /  29.4 °C 48.0 °F /  8.9 °C 30.0in /  1015.8hPa SW 11mph /  17.7km/h 11mph /  17.7km/h 28% 0.000in /  0mm 884.00 W/m2
12:44 85.0 °F /  29.4 °C 48.0 °F /  8.9 °C 30.0in /  1015.8hPa SW 14mph /  22.5km/h 14mph /  22.5km/h 27% 0.000in /  0mm 884.00 W/m2
12:49 86.0 °F /  30 °C 48.0 °F /  8.9 °C 30.0in /  1015.8hPa WSW 7mph /  11.3km/h 14mph /  22.5km/h 27% 0.000in /  0mm 886.00 W/m2
12:54 86.0 °F /  30 °C 47.0 °F /  8.3 °C 30.0in /  1015.8hPa WSW 18mph /  29km/h 9mph /  14.5km/h 26% 0.000in /  0mm 886.00 W/m2
12:59 86.0 °F /  30 °C 47.0 °F /  8.3 °C 30.0in /  1015.8hPa WSW 16mph /  25.7km/h 17mph /  27.4km/h 26% 0.000in /  0mm 884.00 W/m2
13:04 86.0 °F /  30 °C 47.0 °F /  8.3 °C 30.0in /  1015.8hPa SW 9mph /  14.5km/h 7mph /  11.3km/h 26% 0.000in /  0mm 888.00 W/m2
13:08 86.0 °F /  30 °C 48.0 °F /  8.9 °C 30.0in /  1015.8hPa WSW 6mph /  9.7km/h 9mph /  14.5km/h 26% 0.000in /  0mm 886.00 W/m2
13:14 87.0 °F /  30.6 °C 47.0 °F /  8.3 °C 30.0in /  1015.8hPa WSW 11mph /  17.7km/h 9mph /  14.5km/h 25% 0.000in /  0mm 886.00 W/m2
13:19 87.0 °F /  30.6 °C 47.0 °F /  8.3 °C 30.0in /  1015.8hPa WSW 11mph /  17.7km/h 10mph /  16.1km/h 25% 0.000in /  0mm 882.00 W/m2
13:24 87.0 °F /  30.6 °C 48.0 °F /  8.9 °C 30.0in /  1015.8hPa SSW 9mph /  14.5km/h 10mph /  16.1km/h 26% 0.000in /  0mm 884.00 W/m2
13:29 87.0 °F /  30.6 °C 47.0 °F /  8.3 °C 30.0in /  1015.8hPa SW 13mph /  20.9km/h 9mph /  14.5km/h 25% 0.000in /  0mm 875.00 W/m2
13:34 87.0 °F /  30.6 °C 48.0 °F /  8.9 °C 30.0in /  1015.8hPa WSW 9mph /  14.5km/h 13mph /  20.9km/h 26% 0.000in /  0mm 874.00 W/m2
13:39 87.0 °F /  30.6 °C 48.0 °F /  8.9 °C 30.0in /  1015.8hPa South 9mph /  14.5km/h 9mph /  14.5km/h 26% 0.000in /  0mm 872.00 W/m2
13:44 87.0 °F /  30.6 °C 48.0 °F /  8.9 °C 30.0in /  1015.8hPa WSW 11mph /  17.7km/h 6mph /  9.7km/h 26% 0.000in /  0mm 867.00 W/m2
13:49 88.0 °F /  31.1 °C 48.0 °F /  8.9 °C 30.0in /  1015.8hPa West 9mph /  14.5km/h 10mph /  16.1km/h 26% 0.000in /  0mm 858.00 W/m2
13:54 88.0 °F /  31.1 °C 48.0 °F /  8.9 °C 30.0in /  1015.8hPa WSW 9mph /  14.5km/h 9mph /  14.5km/h 26% 0.000in /  0mm 860.00 W/m2
13:59 88.0 °F /  31.1 °C 48.0 °F /  8.9 °C 30.0in /  1015.8hPa WNW 9mph /  14.5km/h 9mph /  14.5km/h 25% 0.000in /  0mm 853.00 W/m2
14:04 88.0 °F /  31.1 °C 49.0 °F /  9.4 °C 30.0in /  1015.8hPa WSW 9mph /  14.5km/h 9mph /  14.5km/h 26% 0.000in /  0mm 844.00 W/m2
14:09 88.0 °F /  31.1 °C 48.0 °F /  8.9 °C 30.0in /  1015.8hPa WSW 13mph /  20.9km/h 9mph /  14.5km/h 25% 0.000in /  0mm 840.00 W/m2
14:14 88.0 °F /  31.1 °C 48.0 °F /  8.9 °C 30.0in /  1015.8hPa SW 4mph /  6.4km/h 13mph /  20.9km/h 25% 0.000in /  0mm 835.00 W/m2
14:19 88.0 °F /  31.1 °C 48.0 °F /  8.9 °C 30.0in /  1015.8hPa WSW 13mph /  20.9km/h 10mph /  16.1km/h 25% 0.000in /  0mm 824.00 W/m2
14:24 88.0 °F /  31.1 °C 49.0 °F /  9.4 °C 30.0in /  1015.8hPa WSW 9mph /  14.5km/h 13mph /  20.9km/h 26% 0.000in /  0mm 816.00 W/m2
14:29 88.0 °F /  31.1 °C 49.0 °F /  9.4 °C 30.0in /  1015.8hPa SW 13mph /  20.9km/h 9mph /  14.5km/h 26% 0.000in /  0mm 810.00 W/m2
14:34 88.0 °F /  31.1 °C 49.0 °F /  9.4 °C 30.0in /  1015.8hPa SW 9mph /  14.5km/h 13mph /  20.9km/h 26% 0.000in /  0mm 802.00 W/m2
14:39 88.0 °F /  31.1 °C 48.0 °F /  8.9 °C 30.0in /  1015.8hPa West 12mph /  19.3km/h 7mph /  11.3km/h 25% 0.000in /  0mm 789.00 W/m2
14:44 88.0 °F /  31.1 °C 48.0 °F /  8.9 °C 30.0in /  1015.8hPa West 13mph /  20.9km/h 13mph /  20.9km/h 25% 0.000in /  0mm 782.00 W/m2
14:49 88.0 °F /  31.1 °C 48.0 °F /  8.9 °C 30.0in /  1015.8hPa West 7mph /  11.3km/h 9mph /  14.5km/h 25% 0.000in /  0mm 773.00 W/m2
14:54 89.0 °F /  31.7 °C 47.0 °F /  8.3 °C 30.0in /  1015.8hPa SW 7mph /  11.3km/h 7mph /  11.3km/h 24% 0.000in /  0mm 766.00 W/m2
14:59 89.0 °F /  31.7 °C 47.0 °F /  8.3 °C 30.0in /  1015.8hPa WSW 9mph /  14.5km/h 9mph /  14.5km/h 24% 0.000in /  0mm 754.00 W/m2
15:04 89.0 °F /  31.7 °C 47.0 °F /  8.3 °C 30.0in /  1015.8hPa SW 11mph /  17.7km/h 9mph /  14.5km/h 24% 0.000in /  0mm 744.00 W/m2
15:09 89.0 °F /  31.7 °C 47.0 °F /  8.3 °C 30.0in /  1015.8hPa SSW 9mph /  14.5km/h 10mph /  16.1km/h 24% 0.000in /  0mm 733.00 W/m2
15:14 89.0 °F /  31.7 °C 48.0 °F /  8.9 °C 30.0in /  1015.8hPa SW 16mph /  25.7km/h 9mph /  14.5km/h 24% 0.000in /  0mm 726.00 W/m2
15:19 90.0 °F /  32.2 °C 47.0 °F /  8.3 °C 30.0in /  1015.8hPa ESE 16mph /  25.7km/h 16mph /  25.7km/h 23% 0.000in /  0mm 708.00 W/m2
15:24 90.0 °F /  32.2 °C 47.0 °F /  8.3 °C 30.0in /  1015.8hPa WSW 20mph /  32.2km/h 11mph /  17.7km/h 23% 0.000in /  0mm 707.00 W/m2
15:29 89.0 °F /  31.7 °C 48.0 °F /  8.9 °C 30.0in /  1015.8hPa SW 11mph /  17.7km/h 20mph /  32.2km/h 24% 0.000in /  0mm 693.00 W/m2
15:34 89.0 °F /  31.7 °C 47.0 °F /  8.3 °C 30.0in /  1015.8hPa WSW 16mph /  25.7km/h 12mph /  19.3km/h 23% 0.000in /  0mm 677.00 W/m2
15:39 89.0 °F /  31.7 °C 47.0 °F /  8.3 °C 30.0in /  1015.8hPa SW 16mph /  25.7km/h 16mph /  25.7km/h 23% 0.000in /  0mm 656.00 W/m2
15:44 89.0 °F /  31.7 °C 48.0 °F /  8.9 °C 30.0in /  1015.8hPa SW 9mph /  14.5km/h 16mph /  25.7km/h 24% 0.000in /  0mm 642.00 W/m2
15:49 89.0 °F /  31.7 °C 47.0 °F /  8.3 °C 30.0in /  1015.8hPa SW 7mph /  11.3km/h 9mph /  14.5km/h 23% 0.000in /  0mm 636.00 W/m2
15:54 89.0 °F /  31.7 °C 47.0 °F /  8.3 °C 30.0in /  1015.8hPa SSW 9mph /  14.5km/h 8mph /  12.9km/h 23% 0.000in /  0mm 626.00 W/m2
15:59 89.0 °F /  31.7 °C 49.0 °F /  9.4 °C 30.0in /  1015.8hPa South 6mph /  9.7km/h 9mph /  14.5km/h 25% 0.000in /  0mm 605.00 W/m2
16:04 89.0 °F /  31.7 °C 48.0 °F /  8.9 °C 30.0in /  1015.8hPa WSW 16mph /  25.7km/h 11mph /  17.7km/h 24% 0.000in /  0mm 592.00 W/m2
16:09 89.0 °F /  31.7 °C 48.0 °F /  8.9 °C 30.0in /  1015.8hPa WNW 7mph /  11.3km/h 16mph /  25.7km/h 24% 0.000in /  0mm 575.00 W/m2
16:14 89.0 °F /  31.7 °C 48.0 °F /  8.9 °C 30.0in /  1015.8hPa WNW 6mph /  9.7km/h 7mph /  11.3km/h 24% 0.000in /  0mm 568.00 W/m2
16:19 89.0 °F /  31.7 °C 47.0 °F /  8.3 °C 30.0in /  1015.8hPa SW 7mph /  11.3km/h 7mph /  11.3km/h 23% 0.000in /  0mm 559.00 W/m2
16:24 89.0 °F /  31.7 °C 47.0 °F /  8.3 °C 30.0in /  1015.8hPa WSW 6mph /  9.7km/h 7mph /  11.3km/h 23% 0.000in /  0mm 547.00 W/m2
16:29 90.0 °F /  32.2 °C 47.0 °F /  8.3 °C 30.0in /  1015.8hPa SSE 4mph /  6.4km/h 6mph /  9.7km/h 23% 0.000in /  0mm 533.00 W/m2
16:34 90.0 °F /  32.2 °C 47.0 °F /  8.3 °C 30.0in /  1015.8hPa SSW 7mph /  11.3km/h 5mph /  8km/h 23% 0.000in /  0mm 515.00 W/m2
16:39 90.0 °F /  32.2 °C 46.0 °F /  7.8 °C 30.0in /  1015.8hPa SW 13mph /  20.9km/h 7mph /  11.3km/h 22% 0.000in /  0mm 501.00 W/m2
16:44 89.0 °F /  31.7 °C 46.0 °F /  7.8 °C 30.0in /  1015.8hPa West 7mph /  11.3km/h 13mph /  20.9km/h 22% 0.000in /  0mm 480.00 W/m2
16:49 90.0 °F /  32.2 °C 46.0 °F /  7.8 °C 30.0in /  1015.8hPa SW 7mph /  11.3km/h 7mph /  11.3km/h 22% 0.000in /  0mm 464.00 W/m2
16:54 90.0 °F /  32.2 °C 46.0 °F /  7.8 °C 30.0in /  1015.8hPa WSW 6mph /  9.7km/h 4mph /  6.4km/h 22% 0.000in /  0mm 457.00 W/m2
16:59 90.0 °F /  32.2 °C 46.0 °F /  7.8 °C 30.0in /  1015.8hPa SW 7mph /  11.3km/h 6mph /  9.7km/h 22% 0.000in /  0mm 450.00 W/m2
17:04 90.0 °F /  32.2 °C 45.0 °F /  7.2 °C 30.0in /  1015.8hPa SSE 9mph /  14.5km/h 7mph /  11.3km/h 21% 0.000in /  0mm 424.00 W/m2
17:09 90.0 °F /  32.2 °C 47.0 °F /  8.3 °C 30.0in /  1015.8hPa WSW 16mph /  25.7km/h 9mph /  14.5km/h 23% 0.000in /  0mm 413.00 W/m2
17:14 90.0 °F /  32.2 °C 46.0 °F /  7.8 °C 30.0in /  1015.8hPa WSW 16mph /  25.7km/h 16mph /  25.7km/h 22% 0.000in /  0mm 396.00 W/m2
17:19 89.0 °F /  31.7 °C 45.0 °F /  7.2 °C 30.0in /  1015.8hPa WNW 11mph /  17.7km/h 10mph /  16.1km/h 22% 0.000in /  0mm 381.00 W/m2
17:24 89.0 °F /  31.7 °C 45.0 °F /  7.2 °C 30.0in /  1015.8hPa SW 7mph /  11.3km/h 10mph /  16.1km/h 22% 0.000in /  0mm 364.00 W/m2
17:29 89.0 °F /  31.7 °C 47.0 °F /  8.3 °C 30.0in /  1015.8hPa SW 6mph /  9.7km/h 7mph /  11.3km/h 24% 0.000in /  0mm 341.00 W/m2
17:34 88.0 °F /  31.1 °C 46.0 °F /  7.8 °C 30.0in /  1015.8hPa SSW 4mph /  6.4km/h 6mph /  9.7km/h 23% 0.000in /  0mm 79.00 W/m2
17:39 88.0 °F /  31.1 °C 44.0 °F /  6.7 °C 30.0in /  1015.8hPa SW 7mph /  11.3km/h 3mph /  4.8km/h 22% 0.000in /  0mm 72.00 W/m2
17:44 88.0 °F /  31.1 °C 44.0 °F /  6.7 °C 30.0in /  1015.8hPa South 4mph /  6.4km/h 7mph /  11.3km/h 22% 0.000in /  0mm 67.00 W/m2
17:49 87.0 °F /  30.6 °C 44.0 °F /  6.7 °C 30.0in /  1015.8hPa SSW 5mph /  8km/h 3mph /  4.8km/h 22% 0.000in /  0mm 69.00 W/m2
17:54 87.0 °F /  30.6 °C 43.0 °F /  6.1 °C 30.0in /  1015.8hPa SW 7mph /  11.3km/h 6mph /  9.7km/h 22% 0.000in /  0mm 84.00 W/m2
17:59 86.0 °F /  30 °C 44.0 °F /  6.7 °C 30.0in /  1015.8hPa SW 4mph /  6.4km/h 7mph /  11.3km/h 23% 0.000in /  0mm 69.00 W/m2
18:04 86.0 °F /  30 °C 46.0 °F /  7.8 °C 30.0in /  1015.8hPa SW 9mph /  14.5km/h 3mph /  4.8km/h 25% 0.000in /  0mm 54.00 W/m2
18:09 85.0 °F /  29.4 °C 45.0 °F /  7.2 °C 30.0in /  1015.8hPa SSW 9mph /  14.5km/h 9mph /  14.5km/h 25% 0.000in /  0mm 53.00 W/m2
18:14 85.0 °F /  29.4 °C 45.0 °F /  7.2 °C 30.0in /  1015.8hPa WSW 7mph /  11.3km/h 3mph /  4.8km/h 25% 0.000in /  0mm 46.00 W/m2
18:19 84.0 °F /  28.9 °C 43.0 °F /  6.1 °C 30.0in /  1015.8hPa SW 7mph /  11.3km/h 7mph /  11.3km/h 24% 0.000in /  0mm 62.00 W/m2
18:24 84.0 °F /  28.9 °C 43.0 °F /  6.1 °C 30.0in /  1015.8hPa SW 6mph /  9.7km/h 7mph /  11.3km/h 24% 0.000in /  0mm 35.00 W/m2
18:29 84.0 °F /  28.9 °C 45.0 °F /  7.2 °C 30.0in /  1015.8hPa WNW 6mph /  9.7km/h 3mph /  4.8km/h 26% 0.000in /  0mm 32.00 W/m2
18:34 83.0 °F /  28.3 °C 43.0 °F /  6.1 °C 30.0in /  1015.8hPa West 4mph /  6.4km/h 6mph /  9.7km/h 24% 0.000in /  0mm 30.00 W/m2
18:39 83.0 °F /  28.3 °C 43.0 °F /  6.1 °C 30.0in /  1015.8hPa SW 7mph /  11.3km/h 3mph /  4.8km/h 24% 0.000in /  0mm 28.00 W/m2
18:44 83.0 °F /  28.3 °C 42.0 °F /  5.6 °C 30.0in /  1015.8hPa SW 7mph /  11.3km/h 7mph /  11.3km/h 24% 0.000in /  0mm 26.00 W/m2
18:49 83.0 °F /  28.3 °C 43.0 °F /  6.1 °C 30.0in /  1015.8hPa SW 4mph /  6.4km/h 2mph /  3.2km/h 25% 0.000in /  0mm 25.00 W/m2
18:54 82.0 °F /  27.8 °C 42.0 °F /  5.6 °C 30.0in /  1015.8hPa SW 2mph /  3.2km/h 3mph /  4.8km/h 24% 0.000in /  0mm 21.00 W/m2
18:59 82.0 °F /  27.8 °C 45.0 °F /  7.2 °C 30.0in /  1015.8hPa SW 2mph /  3.2km/h 2mph /  3.2km/h 27% 0.000in /  0mm 19.00 W/m2
19:04 82.0 °F /  27.8 °C 44.0 °F /  6.7 °C 30.0in /  1015.8hPa SW 2mph /  3.2km/h 2mph /  3.2km/h 26% 0.000in /  0mm 16.00 W/m2
19:09 81.0 °F /  27.2 °C 44.0 °F /  6.7 °C 30.0in /  1015.8hPa Calm   2mph /  3.2km/h 27% 0.000in /  0mm 14.00 W/m2
19:14 81.0 °F /  27.2 °C 45.0 °F /  7.2 °C 30.0in /  1015.8hPa Calm     28% 0.000in /  0mm 14.00 W/m2
19:19 81.0 °F /  27.2 °C 43.0 °F /  6.1 °C 30.0in /  1015.8hPa Calm     27% 0.000in /  0mm 12.00 W/m2
19:24 81.0 °F /  27.2 °C 47.0 °F /  8.3 °C 30.0in /  1015.8hPa Calm     31% 0.000in /  0mm 11.00 W/m2
19:29 80.0 °F /  26.7 °C 43.0 °F /  6.1 °C 30.0in /  1015.8hPa Calm     27% 0.000in /  0mm 9.00 W/m2
19:34 80.0 °F /  26.7 °C 42.0 °F /  5.6 °C 30.0in /  1015.8hPa Calm     26% 0.000in /  0mm 7.00 W/m2
19:39 79.0 °F /  26.1 °C 42.0 °F /  5.6 °C 30.0in /  1015.8hPa Calm     27% 0.000in /  0mm 5.00 W/m2
19:44 79.0 °F /  26.1 °C 42.0 °F /  5.6 °C 30.0in /  1015.8hPa Calm     27% 0.000in /  0mm 0.00 W/m2
19:49 78.0 °F /  25.6 °C 41.0 °F /  5 °C 30.0in /  1015.8hPa Calm     27% 0.000in /  0mm 0.00 W/m2
19:54 78.0 °F /  25.6 °C 42.0 °F /  5.6 °C 30.0in /  1015.8hPa Calm     28% 0.000in /  0mm 0.00 W/m2
19:59 77.0 °F /  25 °C 41.0 °F /  5 °C 30.0in /  1015.8hPa Calm     28% 0.000in /  0mm 0.00 W/m2
20:04 77.0 °F /  25 °C 41.0 °F /  5 °C 30.0in /  1015.8hPa Calm     28% 0.000in /  0mm 0.00 W/m2
20:09 76.0 °F /  24.4 °C 41.0 °F /  5 °C 30.0in /  1015.8hPa Calm     28% 0.000in /  0mm 0.00 W/m2
20:14 76.0 °F /  24.4 °C 40.0 °F /  4.4 °C 30.0in /  1015.8hPa Calm     28% 0.000in /  0mm 0.00 W/m2
20:19 75.0 °F /  23.9 °C 41.0 °F /  5 °C 30.0in /  1015.8hPa Calm     30% 0.000in /  0mm 0.00 W/m2
20:24 75.0 °F /  23.9 °C 42.0 °F /  5.6 °C 30.0in /  1015.8hPa Calm     31% 0.000in /  0mm 0.00 W/m2
20:29 74.0 °F /  23.3 °C 41.0 °F /  5 °C 30.0in /  1015.8hPa Calm     30% 0.000in /  0mm 0.00 W/m2
20:34 74.0 °F /  23.3 °C 42.0 °F /  5.6 °C 30.0in /  1015.8hPa Calm     32% 0.000in /  0mm 0.00 W/m2
20:39 73.0 °F /  22.8 °C 42.0 °F /  5.6 °C 30.0in /  1015.8hPa Calm     32% 0.000in /  0mm 0.00 W/m2
20:44 73.0 °F /  22.8 °C 41.0 °F /  5 °C 30.0in /  1015.8hPa Calm     32% 0.000in /  0mm 0.00 W/m2
20:49 72.0 °F /  22.2 °C 41.0 °F /  5 °C 30.0in /  1015.8hPa Calm     32% 0.000in /  0mm 0.00 W/m2
20:54 72.0 °F /  22.2 °C 41.0 °F /  5 °C 30.0in /  1015.8hPa Calm     33% 0.000in /  0mm 0.00 W/m2
20:59 72.0 °F /  22.2 °C 42.0 °F /  5.6 °C 30.0in /  1015.8hPa Calm     34% 0.000in /  0mm 0.00 W/m2
21:04 71.0 °F /  21.7 °C 41.0 °F /  5 °C 30.0in /  1015.8hPa Calm     33% 0.000in /  0mm 0.00 W/m2
21:09 71.0 °F /  21.7 °C 40.0 °F /  4.4 °C 30.0in /  1015.8hPa Calm     33% 0.000in /  0mm 0.00 W/m2
21:14 71.0 °F /  21.7 °C 41.0 °F /  5 °C 30.0in /  1015.8hPa Calm     34% 0.000in /  0mm 0.00 W/m2
21:19 70.0 °F /  21.1 °C 41.0 °F /  5 °C 30.0in /  1015.8hPa Calm     34% 0.000in /  0mm 0.00 W/m2
21:24 70.0 °F /  21.1 °C 41.0 °F /  5 °C 30.0in /  1015.8hPa Calm     35% 0.000in /  0mm 0.00 W/m2
21:29 70.0 °F /  21.1 °C 41.0 °F /  5 °C 30.0in /  1015.8hPa Calm     35% 0.000in /  0mm 0.00 W/m2
21:34 69.0 °F /  20.6 °C 41.0 °F /  5 °C 30.0in /  1015.8hPa Calm     35% 0.000in /  0mm 0.00 W/m2
21:39 69.0 °F /  20.6 °C 41.0 °F /  5 °C 30.0in /  1015.8hPa Calm     36% 0.000in /  0mm 0.00 W/m2
21:44 69.0 °F /  20.6 °C 41.0 °F /  5 °C 30.0in /  1015.8hPa Calm     36% 0.000in /  0mm 0.00 W/m2
21:49 69.0 °F /  20.6 °C 41.0 °F /  5 °C 30.0in /  1015.8hPa Calm     37% 0.000in /  0mm 0.00 W/m2
21:54 69.0 °F /  20.6 °C 41.0 °F /  5 °C 30.0in /  1015.8hPa Calm     37% 0.000in /  0mm 0.00 W/m2
21:59 68.0 °F /  20 °C 41.0 °F /  5 °C 30.0in /  1015.8hPa Calm     37% 0.000in /  0mm 0.00 W/m2
22:04 68.0 °F /  20 °C 41.0 °F /  5 °C 30.0in /  1015.8hPa Calm     38% 0.000in /  0mm 0.00 W/m2
22:08 68.0 °F /  20 °C 41.0 °F /  5 °C 30.0in /  1015.8hPa Calm     38% 0.000in /  0mm 0.00 W/m2
El Dorado Weather
Compliments of Weather Underground - 2 mb